Location: Beneden-Haastrecht
(52.0012°N, 4.7557°E)
Time: 11:09:53
(UTC+00:00)

X-37B - Pass Details

Date: 22 January 2021
Orbit: 383 x 391 km, 45.0° (Epoch: 27 February)

Event Time Altitude Azimuth Distance (km) Brightness Sun altitude
Rises 17:09:34 0° 212° (SSW) 2,266 5.4 -8.9°
Reaches altitude 10° 17:12:39 10° 179° (S) 1,416 3.7 -9.3°
Maximum altitude 17:13:55 12° 156° (SSE) 1,312 3.2 -9.5°
Drops below altitude 10° 17:15:11 10° 132° (SE) 1,420 3.2 -9.7°
Enters shadow 17:16:17 - 117° (ESE) 1,656 3.4 -9.9°
